| time (UTC) | temp F | wind direction | speed MPH | gust MPH | rain 1hr in | rain 24hr in | rain mn in | humidity % | barometer mb |
| 20260901051040 | 82 | 106 | 0.0 | 1.0 | 0.00 | 0.00 | 0.00 | 60 | 1016.3 |
| 20260901050542 | 82 | 0 | 0.0 | 1.0 | 0.00 | 0.00 | 0.00 | 60 | 1016.2 |
| 20260901050108 | 82 | 0 | 0.0 | 1.0 | 0.00 | 0.00 | 0.00 | 59 | 1016.3 |
| 20260901045540 | 82 | 0 | 0.0 | 0.0 | 0.00 | 0.00 | 0.00 | 59 | 1016.2 |
| 20260901045039 | 82 | 0 | 0.0 | 0.0 | 0.00 | 0.00 | 0.00 | 58 | 1016.1 |
| 20260901044600 | 82 | 0 | 0.0 | 0.0 | 0.00 | 0.00 | 0.00 | 59 | 1016.1 |
| 20260901044040 | 82 | 0 | 0.0 | 0.0 | 0.00 | 0.00 | 0.00 | 59 | 1016.0 |
| 20260901043539 | 82 | 0 | 0.0 | 0.0 | 0.00 | 0.00 | 0.00 | 58 | 1016.0 |
| 20260901043107 | 82 | 0 | 0.0 | 0.0 | 0.00 | 0.00 | 0.00 | 59 | 1015.9 |
| 20260901042541 | 82 | 0 | 0.0 | 0.0 | 0.00 | 0.00 | 0.00 | 59 | 1015.8 |
| 20260901042039 | 82 | 0 | 0.0 | 0.0 | 0.00 | 0.00 | 0.00 | 59 | 1015.9 |
| 20260901041604 | 82 | 0 | 0.0 | 0.0 | 0.00 | 0.00 | 0.00 | 58 | 1015.9 |
| 20260901041043 | 82 | 0 | 0.0 | 0.0 | 0.00 | 0.00 | 0.00 | 58 | 1015.9 |
| 20260901040540 | 82 | 0 | 0.0 | 0.0 | 0.00 | 0.00 | 0.00 | 58 | 1015.9 |
| 20260901035539 | 82 | 0 | 0.0 | 0.0 | 0.00 | 0.00 | 0.00 | 59 | 1015.9 |
| 20260901035039 | 82 | 0 | 0.0 | 0.0 | 0.00 | 0.00 | 0.00 | 58 | 1015.9 |
| 20260901034607 | 82 | 0 | 0.0 | 0.0 | 0.00 | 0.00 | 0.00 | 58 | 1015.9 |
| 20260901034040 | 83 | 0 | 0.0 | 0.0 | 0.00 | 0.00 | 0.00 | 58 | 1015.9 |
| 20260901033540 | 83 | 0 | 0.0 | 0.0 | 0.00 | 0.00 | 0.00 | 58 | 1015.9 |
| 20260901033119 | 83 | 0 | 0.0 | 0.0 | 0.00 | 0.00 | 0.00 | 57 | 1015.9 |
| 20260901032539 | 83 | 0 | 0.0 | 0.0 | 0.00 | 0.00 | 0.00 | 57 | 1015.8 |
| 20260901032041 | 83 | 0 | 0.0 | 0.0 | 0.00 | 0.00 | 0.00 | 57 | 1015.8 |
| 20260901031608 | 83 | 0 | 0.0 | 0.0 | 0.00 | 0.00 | 0.00 | 56 | 1015.8 |
| 20260901031039 | 84 | 0 | 0.0 | 0.0 | 0.00 | 0.00 | 0.00 | 55 | 1015.7 |
| 20260901030538 | 84 | 0 | 0.0 | 0.0 | 0.00 | 0.00 | 0.00 | 56 | 1015.8 |
| 20260901030107 | 84 | 0 | 0.0 | 0.0 | 0.00 | 0.00 | 0.00 | 55 | 1015.8 |
| 20260901025540 | 84 | 0 | 0.0 | 0.0 | 0.00 | 0.00 | 0.00 | 55 | 1015.6 |
| 20260901025040 | 84 | 0 | 0.0 | 0.0 | 0.00 | 0.00 | 0.00 | 54 | 1015.6 |
| 20260901024604 | 85 | 0 | 0.0 | 0.0 | 0.00 | 0.00 | 0.00 | 54 | 1015.6 |
| 20260901024039 | 85 | 0 | 0.0 | 0.0 | 0.00 | 0.00 | 0.00 | 54 | 1015.6 |
| 20260901023540 | 85 | 0 | 0.0 | 0.0 | 0.00 | 0.00 | 0.00 | 54 | 1015.5 |
| 20260901023101 | 85 | 0 | 0.0 | 0.0 | 0.00 | 0.00 | 0.00 | 53 | 1015.4 |
| 20260901022540 | 85 | 0 | 0.0 | 0.0 | 0.00 | 0.00 | 0.00 | 52 | 1015.3 |
| 20260901022037 | 86 | 0 | 0.0 | 0.0 | 0.00 | 0.00 | 0.00 | 52 | 1015.3 |
| 20260901021604 | 86 | 0 | 0.0 | 0.0 | 0.00 | 0.00 | 0.00 | 52 | 1015.3 |
| 20260901021037 | 87 | 0 | 0.0 | 0.0 | 0.00 | 0.00 | 0.00 | 51 | 1015.3 |
| 20260901020542 | 87 | 0 | 0.0 | 0.0 | 0.00 | 0.00 | 0.00 | 51 | 1015.2 |
| 20260901020056 | 88 | 0 | 0.0 | 0.0 | 0.00 | 0.00 | 0.00 | 50 | 1015.1 |
| 20260901015540 | 88 | 0 | 0.0 | 0.0 | 0.00 | 0.00 | 0.00 | 49 | 1015.1 |
| 20260901015040 | 88 | 0 | 0.0 | 0.0 | 0.00 | 0.00 | 0.00 | 48 | 1015.1 |
| 20260901014605 | 89 | 0 | 0.0 | 0.0 | 0.00 | 0.00 | 0.00 | 48 | 1015.0 |
| 20260901014040 | 89 | 0 | 0.0 | 0.0 | 0.00 | 0.00 | 0.00 | 47 | 1015.0 |
| 20260901013540 | 89 | 0 | 0.0 | 0.0 | 0.00 | 0.00 | 0.00 | 46 | 1015.1 |
| 20260901013113 | 90 | 0 | 0.0 | 0.0 | 0.00 | 0.00 | 0.00 | 46 | 1015.0 |
| 20260901012540 | 91 | 0 | 0.0 | 1.0 | 0.00 | 0.00 | 0.00 | 44 | 1015.0 |
| 20260901012040 | 91 | 0 | 0.0 | 1.0 | 0.00 | 0.00 | 0.00 | 44 | 1015.1 |
| 20260901011621 | 91 | 0 | 0.0 | 1.0 | 0.00 | 0.00 | 0.00 | 43 | 1015.0 |
| 20260901011040 | 92 | 0 | 0.0 | 0.0 | 0.00 | 0.00 | 0.00 | 43 | 1015.0 |
| 20260901010543 | 92 | 0 | 0.0 | 0.0 | 0.00 | 0.00 | 0.00 | 42 | 1015.0 |
| 20260901010114 | 93 | 0 | 0.0 | 0.0 | 0.00 | 0.00 | 0.00 | 41 | 1015.1 |
| 20260901005538 | 93 | 0 | 0.0 | 0.0 | 0.00 | 0.00 | 0.00 | 41 | 1015.0 |
| 20260901005044 | 93 | 0 | 0.0 | 1.0 | 0.00 | 0.00 | 0.00 | 40 | 1015.0 |
| 20260901004602 | 94 | 0 | 0.0 | 1.0 | 0.00 | 0.00 | 0.00 | 39 | 1014.9 |
| 20260901004040 | 94 | 0 | 0.0 | 1.0 | 0.00 | 0.00 | 0.00 | 38 | 1014.9 |
| 20260901003540 | 95 | 0 | 0.0 | 1.0 | 0.00 | 0.00 | 0.00 | 38 | 1014.9 |
| 20260901003104 | 95 | 0 | 0.0 | 1.0 | 0.00 | 0.00 | 0.00 | 38 | 1014.8 |
| 20260901002542 | 95 | 0 | 0.0 | 1.0 | 0.00 | 0.00 | 0.00 | 37 | 1014.8 |
| 20260901002040 | 95 | 0 | 0.0 | 1.0 | 0.00 | 0.00 | 0.00 | 37 | 1014.9 |
| 20260901001606 | 96 | 0 | 0.0 | 3.0 | 0.00 | 0.00 | 0.00 | 37 | 1014.8 |
| 20260901001038 | 96 | 0 | 0.0 | 3.0 | 0.00 | 0.00 | 0.00 | 37 | 1014.9 |
| 20260901000540 | 96 | 191 | 0.0 | 2.0 | 0.00 | 0.00 | 0.00 | 36 | 1014.9 |
| 20260901000106 | 96 | 0 | 0.0 | 5.0 | 0.00 | 0.00 | 0.00 | 36 | 1014.9 |
| 20260831235540 | 97 | 118 | 1.0 | 5.0 | 0.00 | 0.00 | 0.00 | 35 | 1014.9 |
| 20260831235042 | 97 | 0 | 1.0 | 5.0 | 0.00 | 0.00 | 0.00 | 36 | 1014.9 |
| 20260831234608 | 97 | 0 | 0.0 | 3.0 | 0.00 | 0.00 | 0.00 | 36 | 1014.9 |
| 20260831234039 | 97 | 122 | 0.0 | 3.0 | 0.00 | 0.00 | 0.00 | 36 | 1015.0 |
| 20260831233541 | 97 | 186 | 0.0 | 2.0 | 0.00 | 0.00 | 0.00 | 36 | 1014.9 |
| 20260831233106 | 97 | 138 | 0.0 | 2.0 | 0.00 | 0.00 | 0.00 | 36 | 1014.9 |
| 20260831232540 | 97 | 107 | 1.0 | 3.0 | 0.00 | 0.00 | 0.00 | 36 | 1014.9 |
| 20260831232040 | 98 | 163 | 0.0 | 3.0 | 0.00 | 0.00 | 0.00 | 36 | 1014.9 |
| 20260831231600 | 98 | 0 | 0.0 | 3.0 | 0.00 | 0.00 | 0.00 | 35 | 1014.9 |
| 20260831231037 | 98 | 79 | 0.0 | 4.0 | 0.00 | 0.00 | 0.00 | 35 | 1014.8 |
| 20260831230543 | 98 | 0 | 1.0 | 7.0 | 0.00 | 0.00 | 0.00 | 35 | 1014.8 |
| 20260831230114 | 98 | 115 | 0.0 | 7.0 | 0.00 | 0.00 | 0.00 | 36 | 1014.9 |
| 20260831225539 | 98 | 87 | 0.0 | 4.0 | 0.00 | 0.00 | 0.00 | 37 | 1015.0 |
| 20260831225041 | 97 | 0 | 1.0 | 3.0 | 0.00 | 0.00 | 0.00 | 37 | 1015.0 |
| 20260831224603 | 98 | 113 | 1.0 | 3.0 | 0.00 | 0.00 | 0.00 | 37 | 1015.1 |
| 20260831224045 | 98 | 182 | 0.0 | 8.0 | 0.00 | 0.00 | 0.00 | 36 | 1015.1 |
| 20260831223543 | 99 | 194 | 3.0 | 8.0 | 0.00 | 0.00 | 0.00 | 36 | 1015.2 |
| 20260831223106 | 99 | 60 | 2.0 | 6.0 | 0.00 | 0.00 | 0.00 | 35 | 1015.2 |
| 20260831222541 | 99 | 77 | 2.0 | 5.0 | 0.00 | 0.00 | 0.00 | 35 | 1015.1 |
| 20260831222038 | 99 | 89 | 0.0 | 5.0 | 0.00 | 0.00 | 0.00 | 35 | 1015.1 |
| 20260831221608 | 99 | 0 | 1.0 | 5.0 | 0.00 | 0.00 | 0.00 | 35 | 1015.1 |
| 20260831221040 | 99 | 77 | 1.0 | 4.0 | 0.00 | 0.00 | 0.00 | 35 | 1015.2 |
| 20260831220540 | 99 | 205 | 1.0 | 5.0 | 0.00 | 0.00 | 0.00 | 35 | 1015.3 |
| 20260831220116 | 99 | 103 | 1.0 | 5.0 | 0.00 | 0.00 | 0.00 | 35 | 1015.3 |
| 20260831215540 | 99 | 143 | 0.0 | 3.0 | 0.00 | 0.00 | 0.00 | 36 | 1015.3 |
| 20260831215040 | 99 | 85 | 0.0 | 3.0 | 0.00 | 0.00 | 0.00 | 36 | 1015.3 |
| 20260831214611 | 98 | 194 | 0.0 | 4.0 | 0.00 | 0.00 | 0.00 | 36 | 1015.4 |
| 20260831214039 | 98 | 184 | 1.0 | 6.0 | 0.00 | 0.00 | 0.00 | 36 | 1015.4 |
| 20260831213539 | 98 | 60 | 2.0 | 6.0 | 0.00 | 0.00 | 0.00 | 36 | 1015.5 |
| 20260831213057 | 98 | 103 | 2.0 | 9.0 | 0.00 | 0.00 | 0.00 | 36 | 1015.6 |
| 20260831212540 | 99 | 73 | 2.0 | 9.0 | 0.00 | 0.00 | 0.00 | 36 | 1015.5 |
| 20260831212037 | 99 | 110 | 2.0 | 9.0 | 0.00 | 0.00 | 0.00 | 36 | 1015.7 |
| 20260831211610 | 99 | 120 | 1.0 | 6.0 | 0.00 | 0.00 | 0.00 | 36 | 1015.7 |
| 20260831211037 | 99 | 71 | 2.0 | 6.0 | 0.00 | 0.00 | 0.00 | 35 | 1015.7 |
| 20260831210539 | 99 | 221 | 1.0 | 5.0 | 0.00 | 0.00 | 0.00 | 36 | 1015.8 |
| 20260831210103 | 99 | 106 | 1.0 | 6.0 | 0.00 | 0.00 | 0.00 | 36 | 1015.8 |
| 20260831205543 | 98 | 120 | 1.0 | 6.0 | 0.00 | 0.00 | 0.00 | 36 | 1015.9 |
| 20260831205040 | 98 | 203 | 2.0 | 7.0 | 0.00 | 0.00 | 0.00 | 37 | 1016.0 |
| 20260831204603 | 98 | 129 | 2.0 | 7.0 | 0.00 | 0.00 | 0.00 | 38 | 1016.1 |
| 20260831204040 | 98 | 117 | 1.0 | 6.0 | 0.00 | 0.00 | 0.00 | 38 | 1016.2 |
| 20260831203537 | 98 | 167 | 2.0 | 6.0 | 0.00 | 0.00 | 0.00 | 38 | 1016.2 |
| 20260831203108 | 98 | 194 | 2.0 | 5.0 | 0.00 | 0.00 | 0.00 | 38 | 1016.3 |
| 20260831202537 | 99 | 123 | 0.0 | 5.0 | 0.00 | 0.00 | 0.00 | 37 | 1016.3 |
| 20260831202041 | 100 | 101 | 2.0 | 5.0 | 0.00 | 0.00 | 0.00 | 36 | 1016.3 |
| 20260831201608 | 100 | 0 | 1.0 | 3.0 | 0.00 | 0.00 | 0.00 | 35 | 1016.2 |
| 20260831201040 | 100 | 227 | 1.0 | 4.0 | 0.00 | 0.00 | 0.00 | 35 | 1016.4 |
| 20260831200537 | 100 | 185 | 1.0 | 5.0 | 0.00 | 0.00 | 0.00 | 35 | 1016.4 |
| 20260831200111 | 100 | 103 | 1.0 | 5.0 | 0.00 | 0.00 | 0.00 | 35 | 1016.5 |
| 20260831195539 | 99 | 110 | 1.0 | 5.0 | 0.00 | 0.00 | 0.00 | 36 | 1016.7 |
| 20260831195040 | 100 | 191 | 2.0 | 5.0 | 0.00 | 0.00 | 0.00 | 35 | 1016.6 |
| 20260831194613 | 100 | 176 | 2.0 | 5.0 | 0.00 | 0.00 | 0.00 | 37 | 1016.7 |
| 20260831194039 | 100 | 122 | 1.0 | 3.0 | 0.00 | 0.00 | 0.00 | 37 | 1016.7 |
| 20260831193540 | 100 | 179 | 1.0 | 3.0 | 0.00 | 0.00 | 0.00 | 36 | 1016.9 |
| 20260831193106 | 101 | 99 | 1.0 | 6.0 | 0.00 | 0.00 | 0.00 | 37 | 1017.1 |
| 20260831192537 | 100 | 154 | 1.0 | 6.0 | 0.00 | 0.00 | 0.00 | 37 | 1017.1 |
| 20260831192041 | 99 | 126 | 2.0 | 6.0 | 0.00 | 0.00 | 0.00 | 38 | 1017.2 |
| 20260831191605 | 99 | 115 | 1.0 | 7.0 | 0.00 | 0.00 | 0.00 | 38 | 1017.2 |
| 20260831191042 | 99 | 189 | 2.0 | 7.0 | 0.00 | 0.00 | 0.00 | 40 | 1017.2 |
| 20260831190540 | 99 | 84 | 2.0 | 6.0 | 0.00 | 0.00 | 0.00 | 38 | 1017.3 |
| 20260831190115 | 99 | 181 | 2.0 | 7.0 | 0.00 | 0.00 | 0.00 | 40 | 1017.3 |
| 20260831185539 | 99 | 188 | 2.0 | 7.0 | 0.00 | 0.00 | 0.00 | 40 | 1017.3 |
| 20260831185038 | 99 | 203 | 0.0 | 4.0 | 0.00 | 0.00 | 0.00 | 39 | 1017.4 |
| 20260831184559 | 99 | 210 | 2.0 | 4.0 | 0.00 | 0.00 | 0.00 | 39 | 1017.3 |
| 20260831184039 | 98 | 214 | 1.0 | 4.0 | 0.00 | 0.00 | 0.00 | 41 | 1017.4 |
| 20260831183541 | 97 | 176 | 1.0 | 3.0 | 0.00 | 0.00 | 0.00 | 40 | 1017.6 |
| 20260831183118 | 98 | 117 | 1.0 | 3.0 | 0.00 | 0.00 | 0.00 | 40 | 1017.5 |
| 20260831182541 | 99 | 201 | 1.0 | 3.0 | 0.00 | 0.00 | 0.00 | 41 | 1017.7 |
| 20260831182037 | 98 | 134 | 1.0 | 3.0 | 0.00 | 0.00 | 0.00 | 40 | 1017.7 |
| 20260831181606 | 98 | 193 | 0.0 | 3.0 | 0.00 | 0.00 | 0.00 | 43 | 1017.7 |
| 20260831181040 | 98 | 148 | 0.0 | 4.0 | 0.00 | 0.00 | 0.00 | 42 | 1017.9 |
| 20260831180539 | 98 | 199 | 1.0 | 4.0 | 0.00 | 0.00 | 0.00 | 41 | 1018.0 |
| 20260831180110 | 98 | 92 | 0.0 | 6.0 | 0.00 | 0.00 | 0.00 | 43 | 1018.0 |
| 20260831175537 | 98 | 160 | 1.0 | 6.0 | 0.00 | 0.00 | 0.00 | 44 | 1018.2 |
| 20260831175041 | 98 | 215 | 1.0 | 4.0 | 0.00 | 0.00 | 0.00 | 44 | 1018.2 |
| 20260831174604 | 97 | 148 | 1.0 | 4.0 | 0.00 | 0.00 | 0.00 | 44 | 1018.3 |
| 20260831174040 | 97 | 96 | 1.0 | 4.0 | 0.00 | 0.00 | 0.00 | 43 | 1018.3 |
| 20260831173541 | 97 | 184 | 1.0 | 5.0 | 0.00 | 0.00 | 0.00 | 44 | 1018.5 |
| 20260831173100 | 96 | 162 | 2.0 | 5.0 | 0.00 | 0.00 | 0.00 | 46 | 1018.5 |
| 20260831172539 | 97 | 200 | 1.0 | 3.0 | 0.00 | 0.00 | 0.00 | 46 | 1018.5 |
| 20260831172039 | 96 | 155 | 2.0 | 3.0 | 0.00 | 0.00 | 0.00 | 46 | 1018.6 |
| 20260831171558 | 96 | 139 | 1.0 | 3.0 | 0.00 | 0.00 | 0.00 | 46 | 1018.7 |
| 20260831171039 | 96 | 0 | 0.0 | 3.0 | 0.00 | 0.00 | 0.00 | 47 | 1018.7 |
| 20260831170539 | 95 | 0 | 0.0 | 3.0 | 0.00 | 0.00 | 0.00 | 47 | 1018.8 |
| 20260831170104 | 95 | 0 | 1.0 | 3.0 | 0.00 | 0.00 | 0.00 | 47 | 1018.8 |
| 20260831165539 | 95 | 222 | 1.0 | 3.0 | 0.00 | 0.00 | 0.00 | 47 | 1018.8 |
| 20260831165036 | 95 | 200 | 1.0 | 3.0 | 0.00 | 0.00 | 0.00 | 48 | 1018.9 |
| 20260831164602 | 95 | 0 | 1.0 | 3.0 | 0.00 | 0.00 | 0.00 | 47 | 1018.9 |
| 20260831164039 | 95 | 129 | 0.0 | 2.0 | 0.00 | 0.00 | 0.00 | 48 | 1018.9 |
| 20260831163539 | 94 | 0 | 0.0 | 2.0 | 0.00 | 0.00 | 0.00 | 48 | 1018.8 |
| 20260831163059 | 94 | 183 | 0.0 | 3.0 | 0.00 | 0.00 | 0.00 | 48 | 1018.9 |
| 20260831162542 | 94 | 158 | 1.0 | 4.0 | 0.00 | 0.00 | 0.00 | 48 | 1018.9 |
| 20260831162037 | 94 | 0 | 1.0 | 4.0 | 0.00 | 0.00 | 0.00 | 48 | 1018.9 |
| 20260831161557 | 94 | 159 | 0.0 | 4.0 | 0.00 | 0.00 | 0.00 | 48 | 1019.0 |
| 20260831161037 | 93 | 163 | 0.0 | 5.0 | 0.00 | 0.00 | 0.00 | 49 | 1018.9 |
| 20260831160537 | 93 | 193 | 2.0 | 5.0 | 0.00 | 0.00 | 0.00 | 49 | 1019.0 |
| 20260831160108 | 93 | 113 | 0.0 | 3.0 | 0.00 | 0.00 | 0.00 | 49 | 1019.1 |
| 20260831155540 | 93 | 227 | 1.0 | 3.0 | 0.00 | 0.00 | 0.00 | 50 | 1019.1 |
| 20260831155037 | 93 | 153 | 0.0 | 3.0 | 0.00 | 0.00 | 0.00 | 51 | 1019.1 |
| 20260831154633 | 92 | 233 | 0.0 | 2.0 | 0.00 | 0.00 | 0.00 | 52 | 1019.1 |
| 20260831154041 | 92 | 198 | 0.0 | 2.0 | 0.00 | 0.00 | 0.00 | 53 | 1019.1 |
| 20260831153540 | 91 | 174 | 0.0 | 2.0 | 0.00 | 0.00 | 0.00 | 54 | 1019.1 |
| 20260831153057 | 91 | 204 | 0.0 | 2.0 | 0.00 | 0.00 | 0.00 | 54 | 1019.1 |
| 20260831152539 | 90 | 169 | 0.0 | 3.0 | 0.00 | 0.00 | 0.00 | 54 | 1019.0 |
| 20260831152039 | 90 | 199 | 1.0 | 3.0 | 0.00 | 0.00 | 0.00 | 55 | 1019.1 |
| 20260831151603 | 89 | 174 | 1.0 | 3.0 | 0.00 | 0.00 | 0.00 | 57 | 1019.1 |
| 20260831151040 | 89 | 161 | 0.0 | 3.0 | 0.00 | 0.00 | 0.00 | 60 | 1018.9 |
| 20260831150539 | 88 | 193 | 0.0 | 2.0 | 0.00 | 0.00 | 0.00 | 61 | 1018.9 |
| 20260831150111 | 88 | 225 | 0.0 | 2.0 | 0.00 | 0.00 | 0.00 | 61 | 1018.9 |
| 20260831145539 | 87 | 187 | 1.0 | 3.0 | 0.00 | 0.00 | 0.00 | 62 | 1019.0 |
| 20260831145039 | 87 | 0 | 1.0 | 3.0 | 0.00 | 0.00 | 0.00 | 63 | 1018.8 |
| 20260831144608 | 87 | 0 | 0.0 | 2.0 | 0.00 | 0.00 | 0.00 | 64 | 1018.8 |
| 20260831144039 | 87 | 236 | 0.0 | 2.0 | 0.00 | 0.00 | 0.00 | 64 | 1018.8 |
| 20260831143539 | 86 | 210 | 0.0 | 2.0 | 0.00 | 0.00 | 0.00 | 65 | 1018.9 |
| 20260831143108 | 86 | 204 | 0.0 | 2.0 | 0.00 | 0.00 | 0.00 | 65 | 1018.9 |
| 20260831142541 | 86 | 0 | 0.0 | 5.0 | 0.00 | 0.00 | 0.00 | 67 | 1018.8 |
| 20260831142039 | 85 | 0 | 0.0 | 5.0 | 0.00 | 0.00 | 0.00 | 67 | 1018.7 |
| 20260831141559 | 85 | 253 | 1.0 | 3.0 | 0.00 | 0.00 | 0.00 | 67 | 1018.7 |
| 20260831141042 | 85 | 221 | 0.0 | 3.0 | 0.00 | 0.00 | 0.00 | 66 | 1018.7 |
| 20260831140539 | 85 | 210 | 0.0 | 3.0 | 0.00 | 0.00 | 0.00 | 67 | 1018.8 |
| 20260831140058 | 85 | 0 | 0.0 | 1.0 | 0.00 | 0.00 | 0.00 | 68 | 1018.8 |
| 20260831135539 | 85 | 179 | 0.0 | 1.0 | 0.00 | 0.00 | 0.00 | 69 | 1018.7 |
| 20260831135040 | 86 | 171 | 0.0 | 1.0 | 0.00 | 0.00 | 0.00 | 68 | 1018.6 |
| 20260831134606 | 85 | 0 | 0.0 | 1.0 | 0.00 | 0.00 | 0.00 | 69 | 1018.7 |
| 20260831134039 | 85 | 115 | 0.0 | 0.0 | 0.00 | 0.00 | 0.00 | 68 | 1018.5 |
| 20260831133541 | 85 | 0 | 0.0 | 0.0 | 0.00 | 0.00 | 0.00 | 69 | 1018.4 |
| 20260831133104 | 85 | 0 | 0.0 | 0.0 | 0.00 | 0.00 | 0.00 | 69 | 1018.4 |
| 20260831132539 | 84 | 0 | 0.0 | 1.0 | 0.00 | 0.00 | 0.00 | 71 | 1018.3 |
| 20260831132039 | 83 | 157 | 0.0 | 1.0 | 0.00 | 0.00 | 0.00 | 71 | 1018.2 |
| 20260831131606 | 82 | 155 | 0.0 | 0.0 | 0.00 | 0.00 | 0.00 | 73 | 1018.0 |
| 20260831131037 | 81 | 0 | 0.0 | 0.0 | 0.00 | 0.00 | 0.00 | 74 | 1017.9 |
| 20260831130540 | 81 | 0 | 0.0 | 1.0 | 0.00 | 0.00 | 0.00 | 75 | 1017.9 |
| 20260831130104 | 80 | 0 | 0.0 | 1.0 | 0.00 | 0.00 | 0.00 | 75 | 1017.8 |
| 20260831125540 | 80 | 118 | 0.0 | 1.0 | 0.00 | 0.00 | 0.00 | 76 | 1017.9 |
| 20260831125040 | 79 | 0 | 0.0 | 1.0 | 0.00 | 0.00 | 0.00 | 76 | 1018.0 |
| 20260831124600 | 78 | 0 | 0.0 | 1.0 | 0.00 | 0.00 | 0.00 | 77 | 1017.9 |
| 20260831124042 | 78 | 0 | 0.0 | 1.0 | 0.00 | 0.00 | 0.00 | 78 | 1017.9 |
| 20260831123541 | 77 | 117 | 0.0 | 0.0 | 0.00 | 0.00 | 0.00 | 78 | 1017.9 |
| 20260831123102 | 77 | 0 | 0.0 | 0.0 | 0.00 | 0.00 | 0.00 | 79 | 1017.6 |
| 20260831122542 | 76 | 0 | 0.0 | 0.0 | 0.00 | 0.00 | 0.00 | 79 | 1017.6 |
| 20260831122039 | 76 | 0 | 0.0 | 0.0 | 0.00 | 0.00 | 0.00 | 78 | 1017.5 |
| 20260831121554 | 76 | 0 | 0.0 | 0.0 | 0.00 | 0.00 | 0.00 | 78 | 1017.5 |
| 20260831121037 | 77 | 0 | 0.0 | 0.0 | 0.00 | 0.00 | 0.00 | 78 | 1017.4 |
| 20260831120540 | 77 | 0 | 0.0 | 0.0 | 0.00 | 0.00 | 0.00 | 77 | 1017.3 |
| 20260831120124 | 77 | 0 | 0.0 | 0.0 | 0.00 | 0.00 | 0.00 | 77 | 1017.4 |
| 20260831115536 | 78 | 153 | 0.0 | 0.0 | 0.00 | 0.00 | 0.00 | 77 | 1017.3 |
| 20260831115038 | 78 | 0 | 0.0 | 0.0 | 0.00 | 0.00 | 0.00 | 77 | 1017.3 |
| 20260831114600 | 78 | 0 | 0.0 | 0.0 | 0.00 | 0.00 | 0.00 | 76 | 1017.1 |
| 20260831114039 | 79 | 0 | 0.0 | 0.0 | 0.00 | 0.00 | 0.00 | 75 | 1017.1 |
| 20260831113539 | 79 | 0 | 0.0 | 0.0 | 0.00 | 0.00 | 0.00 | 74 | 1017.0 |
| 20260831113106 | 79 | 0 | 0.0 | 1.0 | 0.00 | 0.00 | 0.00 | 74 | 1016.8 |
| 20260831112540 | 79 | 0 | 0.0 | 1.0 | 0.00 | 0.00 | 0.00 | 74 | 1016.7 |
| 20260831112038 | 79 | 0 | 0.0 | 1.0 | 0.00 | 0.00 | 0.00 | 74 | 1016.8 |
| 20260831111614 | 79 | 0 | 0.0 | 1.0 | 0.00 | 0.00 | 0.00 | 74 | 1016.6 |
| 20260831111037 | 79 | 218 | 0.0 | 1.0 | 0.00 | 0.00 | 0.00 | 74 | 1016.5 |
| 20260831110544 | 79 | 0 | 0.0 | 0.0 | 0.00 | 0.00 | 0.00 | 74 | 1016.5 |
| 20260831110105 | 79 | 0 | 0.0 | 0.0 | 0.00 | 0.00 | 0.00 | 74 | 1016.5 |
| 20260831105541 | 79 | 0 | 0.0 | 0.0 | 0.00 | 0.00 | 0.00 | 74 | 1016.6 |
| 20260831105039 | 80 | 0 | 0.0 | 0.0 | 0.00 | 0.00 | 0.00 | 74 | 1016.7 |
| 20260831104602 | 80 | 0 | 0.0 | 0.0 | 0.00 | 0.00 | 0.00 | 74 | 1016.8 |
| 20260831104039 | 80 | 0 | 0.0 | 0.0 | 0.00 | 0.00 | 0.00 | 73 | 1016.6 |
| 20260831103536 | 80 | 0 | 0.0 | 0.0 | 0.00 | 0.00 | 0.00 | 73 | 1016.6 |
| 20260831103107 | 80 | 0 | 0.0 | 0.0 | 0.00 | 0.00 | 0.00 | 73 | 1016.6 |
| 20260831102536 | 80 | 0 | 0.0 | 0.0 | 0.00 | 0.00 | 0.00 | 72 | 1016.6 |
| 20260831102039 | 80 | 0 | 0.0 | 0.0 | 0.00 | 0.00 | 0.00 | 72 | 1016.7 |
| 20260831101606 | 81 | 0 | 0.0 | 0.0 | 0.00 | 0.00 | 0.00 | 72 | 1016.6 |
| 20260831101039 | 81 | 0 | 0.0 | 1.0 | 0.00 | 0.00 | 0.00 | 72 | 1016.6 |
| 20260831100542 | 81 | 0 | 0.0 | 1.0 | 0.00 | 0.00 | 0.00 | 71 | 1016.5 |
| 20260831100112 | 81 | 0 | 0.0 | 1.0 | 0.00 | 0.00 | 0.00 | 71 | 1016.6 |
| 20260831095541 | 81 | 184 | 0.0 | 1.0 | 0.00 | 0.00 | 0.00 | 71 | 1016.5 |
| 20260831095043 | 81 | 0 | 0.0 | 1.0 | 0.00 | 0.00 | 0.00 | 70 | 1016.4 |
| 20260831094605 | 81 | 205 | 0.0 | 1.0 | 0.00 | 0.00 | 0.00 | 70 | 1016.5 |
| 20260831094041 | 81 | 0 | 0.0 | 1.0 | 0.00 | 0.00 | 0.00 | 70 | 1016.5 |
| 20260831093540 | 81 | 0 | 0.0 | 1.0 | 0.00 | 0.00 | 0.00 | 70 | 1016.4 |
| 20260831093057 | 81 | 0 | 0.0 | 0.0 | 0.00 | 0.00 | 0.00 | 70 | 1016.4 |
| 20260831092539 | 81 | 202 | 0.0 | 0.0 | 0.00 | 0.00 | 0.00 | 69 | 1016.3 |
| 20260831092037 | 81 | 0 | 0.0 | 0.0 | 0.00 | 0.00 | 0.00 | 69 | 1016.3 |
| 20260831091605 | 81 | 0 | 0.0 | 0.0 | 0.00 | 0.00 | 0.00 | 68 | 1016.2 |
| 20260831091037 | 82 | 0 | 0.0 | 0.0 | 0.00 | 0.00 | 0.00 | 68 | 1016.4 |
| 20260831090540 | 82 | 0 | 0.0 | 0.0 | 0.00 | 0.00 | 0.00 | 67 | 1016.2 |
| 20260831090109 | 82 | 0 | 0.0 | 0.0 | 0.00 | 0.00 | 0.00 | 67 | 1016.2 |
| 20260831085540 | 82 | 0 | 0.0 | 0.0 | 0.00 | 0.00 | 0.00 | 66 | 1016.2 |
| 20260831085037 | 82 | 0 | 0.0 | 2.0 | 0.00 | 0.00 | 0.00 | 66 | 1016.2 |
| 20260831084608 | 82 | 0 | 0.0 | 2.0 | 0.00 | 0.00 | 0.00 | 66 | 1016.1 |
| 20260831084039 | 82 | 0 | 0.0 | 0.0 | 0.00 | 0.00 | 0.00 | 65 | 1016.1 |
| 20260831083539 | 82 | 0 | 0.0 | 1.0 | 0.00 | 0.00 | 0.00 | 65 | 1016.2 |
| 20260831083103 | 82 | 0 | 0.0 | 1.0 | 0.00 | 0.00 | 0.00 | 64 | 1016.1 |
| 20260831082540 | 83 | 189 | 0.0 | 1.0 | 0.00 | 0.00 | 0.00 | 64 | 1016.2 |
| 20260831082039 | 83 | 0 | 0.0 | 1.0 | 0.00 | 0.00 | 0.00 | 63 | 1016.2 |
| 20260831081606 | 83 | 0 | 0.0 | 3.0 | 0.00 | 0.00 | 0.00 | 63 | 1016.1 |
| 20260831081039 | 83 | 0 | 1.0 | 3.0 | 0.00 | 0.00 | 0.00 | 63 | 1016.1 |
| 20260831080540 | 83 | 210 | 0.0 | 1.0 | 0.00 | 0.00 | 0.00 | 63 | 1016.1 |
| 20260831080138 | 83 | 200 | 0.0 | 1.0 | 0.00 | 0.00 | 0.00 | 62 | 1016.1 |
| 20260831075537 | 83 | 0 | 0.0 | 1.0 | 0.00 | 0.00 | 0.00 | 62 | 1015.9 |
| 20260831075039 | 83 | 196 | 0.0 | 0.0 | 0.00 | 0.00 | 0.00 | 62 | 1015.9 |
| 20260831074606 | 84 | 0 | 0.0 | 0.0 | 0.00 | 0.00 | 0.00 | 61 | 1015.9 |
| 20260831074039 | 84 | 0 | 0.0 | 3.0 | 0.00 | 0.00 | 0.00 | 61 | 1015.9 |
| 20260831073540 | 84 | 0 | 0.0 | 3.0 | 0.00 | 0.00 | 0.00 | 61 | 1015.8 |
| 20260831073117 | 84 | 160 | 0.0 | 2.0 | 0.00 | 0.00 | 0.00 | 61 | 1015.8 |
| 20260831072539 | 84 | 0 | 0.0 | 2.0 | 0.00 | 0.00 | 0.00 | 61 | 1015.8 |
| 20260831072037 | 84 | 0 | 0.0 | 2.0 | 0.00 | 0.00 | 0.00 | 61 | 1015.8 |
| 20260831071601 | 83 | 191 | 0.0 | 1.0 | 0.00 | 0.00 | 0.00 | 60 | 1015.8 |
| 20260831071038 | 83 | 168 | 0.0 | 2.0 | 0.00 | 0.00 | 0.00 | 60 | 1015.8 |
| 20260831070539 | 83 | 0 | 0.0 | 2.0 | 0.00 | 0.00 | 0.00 | 59 | 1015.9 |
| 20260831070107 | 83 | 155 | 0.0 | 2.0 | 0.00 | 0.00 | 0.00 | 59 | 1016.0 |
| 20260831065539 | 83 | 0 | 0.0 | 1.0 | 0.00 | 0.00 | 0.00 | 59 | 1016.1 |
| 20260831065039 | 83 | 188 | 0.0 | 0.0 | 0.00 | 0.00 | 0.00 | 59 | 1016.1 |
| 20260831064558 | 82 | 0 | 0.0 | 0.0 | 0.00 | 0.00 | 0.00 | 60 | 1016.1 |
| 20260831064039 | 82 | 184 | 0.0 | 0.0 | 0.00 | 0.00 | 0.00 | 60 | 1016.0 |
| 20260831063538 | 82 | 0 | 0.0 | 0.0 | 0.00 | 0.00 | 0.00 | 60 | 1016.0 |
| 20260831063106 | 82 | 0 | 0.0 | 0.0 | 0.00 | 0.00 | 0.00 | 60 | 1015.9 |
| 20260831062539 | 82 | 0 | 0.0 | 0.0 | 0.00 | 0.00 | 0.00 | 60 | 1015.8 |
| 20260831062043 | 82 | 0 | 0.0 | 0.0 | 0.00 | 0.00 | 0.00 | 60 | 1015.8 |
| 20260831061600 | 82 | 0 | 0.0 | 0.0 | 0.00 | 0.00 | 0.00 | 60 | 1015.9 |
| 20260831061040 | 83 | 0 | 0.0 | 0.0 | 0.00 | 0.00 | 0.00 | 60 | 1016.0 |
| 20260831060539 | 83 | 0 | 0.0 | 0.0 | 0.00 | 0.00 | 0.00 | 59 | 1016.0 |
| 20260831055539 | 84 | 0 | 0.0 | 0.0 | 0.00 | 0.00 | 0.00 | 58 | 1016.0 |
| 20260831055039 | 84 | 0 | 0.0 | 0.0 | 0.00 | 0.00 | 0.00 | 58 | 1016.0 |
| 20260831054557 | 84 | 0 | 0.0 | 0.0 | 0.00 | 0.00 | 0.00 | 58 | 1015.8 |
| 20260831054040 | 84 | 0 | 0.0 | 0.0 | 0.00 | 0.00 | 0.00 | 58 | 1015.9 |
| 20260831053540 | 84 | 0 | 0.0 | 0.0 | 0.00 | 0.00 | 0.00 | 57 | 1015.9 |
| 20260831053104 | 85 | 0 | 0.0 | 0.0 | 0.00 | 0.00 | 0.00 | 57 | 1015.9 |
| 20260831052537 | 85 | 0 | 0.0 | 0.0 | 0.00 | 0.00 | 0.00 | 57 | 1015.9 |
| 20260831052042 | 85 | 0 | 0.0 | 0.0 | 0.00 | 0.00 | 0.00 | 57 | 1015.8 |
| 20260831051610 | 85 | 0 | 0.0 | 0.0 | 0.00 | 0.00 | 0.00 | 57 | 1015.8 |